Wind_Speed
23 24 24 24 24 26 28 28 29 27 27 27 27 28 28 29 30 31 32 33 33 34 34 35 34 35 35 35 35 35 35 35 35 35 35 34 34 34 34 34 34 34 33 32
22 24 24 24 25 25 27 28 28 28 27 26 27 27 28 28 29 30 32 33 33 34 34 34 34 34 34 35 35 35 35 35 35 35 34 34 34 34 34 34 34 34 33 32
22 23 24 25 24 25 26 27 28 28 27 27 27 28 29 29 29 29 30 31 32 34 34 33 33 34 34 34 34 34 34 34 34 35 34 33 34 34 34 34 34 34 33 32
23 24 24 23 25 25 26 27 28 27 27 28 28 28 28 29 29 28 29 30 32 33 34 34 34 34 34 34 34 34 34 34 34 34 34 33 33 33 33 33 32 32 32 31
22 23 23 23 24 24 26 26 27 27 27 28 28 28 28 28 29 29 29 29 30 32 33 34 34 34 34 34 34 34 34 33 33 33 33 32 32 32 31 31 30 30 30 30
22 22 22 22 23 24 25 25 27 28 28 28 28 29 28 29 29 29 29 29 30 31 32 34 34 35 34 34 34 34 34 33 32 32 32 32 31 30 30 29 29 28 28 28
22 23 22 22 23 23 24 24 26 27 28 29 29 29 29 29 30 30 30 30 30 30 31 32 34 34 34 34 33 33 33 33 33 32 31 30 30 29 29 28 28 28 27 27
21 22 22 22 22 23 23 23 24 26 27 28 29 30 30 30 30 30 30 31 31 30 31 31 32 33 33 33 33 33 33 33 32 32 31 30 30 29 28 28 27 27 27 27
21 21 21 22 22 23 23 24 24 25 26 27 27 28 30 30 30 30 31 31 32 32 31 31 31 32 32 33 34 34 34 33 32 32 31 30 30 29 28 27 27 27 26 26
21 21 21 22 22 23 24 25 25 25 26 27 27 27 28 29 29 29 30 31 32 32 32 31 31 31 31 32 33 33 33 33 32 32 31 30 30 29 28 27 26 26 25 25
21 21 22 22 22 23 24 25 25 25 26 26 26 26 27 27 28 29 29 31 31 31 31 31 31 31 31 31 32 32 32 32 32 31 30 29 29 28 28 27 26 26 25 25
22 22 22 22 22 22 23 23 24 24 24 24 25 25 25 26 27 28 28 29 30 30 31 31 30 30 31 31 31 31 30 30 30 30 30 29 28 27 27 26 26 26 25 24
23 22 23 23 23 23 23 22 23 24 24 24 24 25 25 25 26 26 26 27 28 29 30 31 30 30 30 30 30 29 29 29 29 29 29 29 28 27 27 26 26 26 25 25
24 23 23 24 24 24 24 24 24 24 24 24 24 24 24 24 24 24 25 25 26 28 29 30 30 30 30 29 29 29 28 28 28 28 29 29 28 27 27 27 26 26 25 25
24 24 24 24 25 26 26 26 25 25 25 25 25 24 23 23 23 24 24 25 25 26 27 28 29 29 29 29 28 28 28 28 27 26 27 27 27 27 27 27 27 27 26 25
25 25 25 25 25 25 26 26 26 26 26 26 25 24 23 23 23 23 23 24 24 25 25 26 26 27 28 28 28 28 27 27 27 26 25 25 26 26 26 27 27 27 26 26
24 25 25 26 26 25 26 26 27 27 26 26 26 25 24 23 23 23 23 23 23 23 24 24 25 25 26 27 28 28 27 27 26 26 25 25 25 25 26 26 26 26 26 25
24 25 26 27 27 27 27 27 27 27 27 26 26 26 25 24 24 23 23 23 23 23 23 23 24 24 24 25 27 28 27 27 27 26 25 25 25 25 25 25 25 25 25 25
24 24 25 26 26 27 27 27 27 26 27 27 26 26 26 25 25 24 23 23 23 23 23 23 23 23 23 24 24 26 26 26 26 26 26 26 26 25 25 25 25 25 25 25
24 23 23 24 25 26 26 27 27 26 26 26 26 26 26 26 25 25 24 23 23 23 23 23 23 22 22 23 23 24 25 25 26 26 26 25 25 25 25 25 25 26 26 26
22 23 23 23 24 24 25 26 26 26 26 26 26 26 26 26 25 24 24 23 23 23 22 23 22 22 22 22 22 23 24 24 25 25 25 24 24 24 24 24 25 25 26 27
22 23 23 23 24 24 24 25 25 25 25 25 25 25 25 25 25 24 24 23 23 22 22 21 21 21 21 21 21 22 22 23 23 24 23 23 23 24 24 24 24 25 26 26
22 23 23 23 23 23 23 23 23 24 25 25 25 25 25 25 25 25 24 24 23 23 22 22 21 21 21 21 21 21 22 22 22 22 22 22 22 22 22 23 23 24 24 25
22 22 22 22 22 22 22 22 23 23 24 24 24 25 25 25 25 25 25 24 24 24 23 22 22 22 22 21 21 22 21 21 21 21 20 21 21 21 22 22 22 22 23 24
21 22 22 22 22 22 22 22 22 23 23 24 24 24 25 25 25 25 25 25 25 24 24 23 22 22 22 22 21 21 21 21 20 20 20 20 21 21 21 21 21 21 22 22
21 21 21 22 22 22 22 22 22 22 22 23 23 23 24 24 24 24 25 25 25 24 24 24 23 23 22 22 22 21 21 21 20 20 21 21 21 21 20 21 21 21 21 21
21 21 21 21 21 22 22 22 22 22 22 22 22 22 23 23 23 23 24 24 24 24 24 24 23 23 22 22 21 21 21 20 20 20 20 21 20 20 20 20 20 20 21 21
Wind_Direction
243 242 241 241 239 238 238 237 238 236 236 236 238 238 237 237 237 237 237 237 239 240 240 241 242 244 245 246 248 250 252 254 256 258 260 262 264 266 268 270 271 272 275 277
244 243 242 242 241 240 239 238 237 236 235 237 237 237 238 238 239 238 238 238 239 240 241 241 242 244 245 246 248 251 253 255 257 258 260 262 264 266 268 269 270 272 274 276
246 245 245 243 242 243 243 240 239 237 237 237 237 238 238 239 239 239 238 238 238 240 240 240 242 243 245 247 249 251 253 255 257 258 261 262 263 266 267 268 270 272 274 275
248 247 247 246 244 244 243 241 241 239 238 238 238 237 238 238 238 238 239 238 239 240 241 241 242 244 246 248 250 252 254 255 257 258 260 261 264 266 267 269 270 271 272 274
251 250 248 245 247 246 245 242 241 240 238 238 239 238 238 238 237 238 239 241 241 242 243 244 243 244 246 249 251 252 254 255 256 258 259 261 264 265 266 268 270 271 272 274
252 253 252 247 249 249 248 245 242 241 240 240 240 240 238 240 241 241 243 243 244 244 245 246 246 246 247 249 251 252 253 255 256 257 259 262 263 264 266 267 268 270 272 274
254 254 253 250 249 248 247 245 244 243 241 242 241 241 239 241 242 243 244 245 245 246 246 247 247 248 248 250 250 251 253 255 257 258 260 261 262 264 266 268 269 270 271 274
255 255 253 253 252 249 248 245 244 243 242 243 242 241 242 244 245 245 246 247 246 247 248 248 249 249 249 250 250 251 253 255 256 257 259 260 261 263 265 267 269 270 270 271
255 255 255 255 254 251 248 245 243 242 243 244 243 243 244 246 247 248 248 248 249 249 249 250 251 250 250 250 251 252 252 254 255 256 257 259 260 262 264 266 267 269 269 270
255 253 254 254 253 252 250 247 245 244 245 245 244 244 245 247 248 250 250 250 249 249 250 251 252 251 250 250 251 252 253 253 254 255 256 258 260 262 262 264 265 266 267 268
257 254 253 253 254 253 251 249 247 246 246 246 245 245 246 247 248 250 252 251 250 249 250 251 251 251 251 251 251 252 253 253 252 252 255 257 258 260 261 262 262 264 266 268
258 256 253 252 252 251 250 249 248 248 249 249 247 248 249 249 250 251 251 250 248 248 249 249 250 251 251 250 250 250 251 250 251 253 254 256 258 259 260 260 261 263 265 267
257 255 253 252 252 251 250 250 250 251 251 251 250 250 252 253 253 252 251 250 248 247 248 249 249 251 251 249 248 248 248 248 251 253 255 257 258 258 259 259 260 262 265 267
255 255 253 252 252 251 251 251 252 251 251 252 252 253 254 255 255 254 252 251 250 248 248 249 250 250 249 247 246 246 247 249 251 253 254 255 255 255 256 258 260 262 264 266
256 255 255 254 253 252 252 252 252 252 251 252 252 254 254 255 255 255 254 253 252 250 248 248 248 248 246 245 244 244 246 248 250 252 254 255 255 255 255 257 259 262 264 267
256 256 255 254 254 253 252 252 253 253 252 252 252 253 254 255 255 254 253 253 251 249 247 247 247 245 244 243 242 244 245 248 250 252 254 255 256 256 255 257 259 261 262 265
258 257 255 255 255 254 254 253 254 253 253 252 252 252 254 256 255 254 253 252 250 247 246 246 245 244 243 243 242 243 246 248 250 252 254 255 256 256 257 258 259 260 262 263
260 259 258 256 254 255 255 255 255 254 251 251 251 251 253 254 253 253 253 252 249 247 247 246 244 245 245 244 243 243 245 248 250 251 252 254 256 258 259 259 259 260 261 262
261 260 258 257 256 255 255 255 255 254 253 252 251 251 251 253 253 253 252 251 249 248 246 245 244 245 246 245 245 245 246 248 249 250 251 254 256 258 258 259 260 261 261 262
264 263 261 260 258 256 256 256 254 254 254 252 251 249 250 251 252 251 249 249 247 247 245 243 243 244 245 246 246 247 247 247 248 249 251 253 256 258 259 260 260 261 261 262
266 265 264 263 260 258 256 254 252 253 253 251 250 249 249 249 249 247 246 246 246 246 245 244 243 244 245 247 249 249 247 245 246 248 251 254 257 258 260 260 261 263 262 262
265 264 265 265 263 260 257 253 251 250 250 251 250 249 248 247 246 245 244 244 244 243 242 242 242 243 243 245 248 249 248 245 245 248 251 253 256 258 260 261 264 265 264 262
267 266 265 265 264 261 257 253 250 249 248 249 250 250 249 247 246 245 244 244 243 243 242 241 242 242 242 244 246 247 247 246 246 248 251 253 255 258 260 262 264 264 265 266
270 269 266 263 262 260 256 253 251 250 249 250 251 250 250 248 247 245 244 243 243 243 242 242 244 244 244 247 248 246 245 245 247 249 252 254 255 258 260 262 264 265 266 266
272 271 267 262 260 257 253 251 251 250 251 252 252 251 249 248 246 245 244 243 243 243 243 244 245 244 246 247 248 246 245 245 249 252 255 256 257 259 260 262 264 266 267 266
272 271 267 264 259 254 250 250 250 251 252 252 251 249 247 246 245 243 242 241 241 240 240 241 243 244 245 246 245 245 245 246 248 252 255 257 257 258 260 261 262 264 265 264
272 271 268 265 259 254 251 250 250 251 251 250 248 246 245 244 243 241 241 239 238 237 239 240 241 242 244 244 244 245 247 248 250 252 254 255 257 258 259 259 261 264 265 264
Height
5562 5564 5567 5570 5573 5575 5578 5581 5585 5589 5592 5595 5598 5601 5604 5607 5610 5614 5617 5620 5624 5627 5630 5634 5637 5640 5643 5646 5648 5650 5651 5653 5654 5655 5656 5656 5657 5657 5656 5656 5655 5654 5653 5652
5558 5560 5562 5564 5567 5570 5572 5575 5578 5582 5586 5589 5591 5594 5597 5600 5603 5606 5609 5613 5616 5619 5622 5626 5629 5632 5634 5637 5639 5641 5643 5644 5645 5646 5647 5647 5648 5648 5648 5647 5647 5646 5645 5643
5553 5555 5557 5560 5563 5565 5567 5570 5573 5576 5580 5582 5585 5588 5590 5593 5596 5599 5602 5605 5608 5611 5614 5617 5620 5623 5626 5628 5630 5632 5634 5635 5636 5637 5638 5638 5639 5639 5639 5638 5638 5637 5636 5635
5548 5551 5553 5558 5557 5559 5561 5564 5566 5569 5572 5575 5578 5581 5584 5587 5589 5592 5595 5598 5600 5603 5606 5609 5612 5615 5617 5619 5621 5623 5625 5626 5627 5628 5629 5630 5630 5630 5630 5630 5629 5629 5628 5627
5543 5545 5547 5551 5552 5553 5555 5558 5560 5563 5566 5569 5572 5575 5578 5580 5583 5585 5588 5590 5593 5595 5598 5600 5603 5606 5608 5611 5612 5614 5616 5617 5618 5619 5620 5621 5621 5622 5621 5621 5621 5621 5620 5619
5538 5539 5542 5546 5546 5547 5550 5552 5554 5556 5559 5562 5565 5569 5573 5574 5576 5579 5581 5583 5585 5588 5589 5592 5594 5597 5600 5602 5603 5605 5607 5608 5609 5611 5612 5613 5613 5613 5613 5613 5613 5613 5612 5611
5533 5534 5536 5539 5540 5542 5545 5547 5548 5550 5552 5555 5558 5562 5565 5566 5569 5571 5574 5576 5578 5580 5582 5584 5586 5588 5591 5593 5595 5597 5598 5600 5601 5602 5603 5604 5605 5605 5605 5606 5605 5605 5605 5604
5528 5529 5533 5533 5534 5536 5538 5540 5541 5543 5546 5548 5551 5553 5556 5559 5561 5564 5566 5568 5570 5572 5574 5576 5577 5579 5582 5584 5586 5588 5590 5591 5592 5594 5595 5596 5597 5597 5598 5598 5598 5598 5597 5597
5523 5526 5526 5526 5527 5529 5531 5533 5535 5537 5539 5541 5544 5546 5549 5551 5553 5556 5558 5560 5562 5564 5566 5567 5569 5571 5573 5575 5577 5579 5581 5582 5584 5585 5587 5588 5589 5589 5590 5590 5590 5590 5590 5590
5518 5519 5520 5521 5521 5523 5524 5526 5528 5530 5532 5535 5537 5539 5541 5543 5545 5547 5549 5551 5553 5555 5557 5559 5560 5562 5564 5566 5568 5570 5572 5574 5575 5577 5579 5580 5581 5582 5582 5583 5583 5583 5584 5584
5512 5513 5514 5515 5516 5517 5518 5519 5521 5523 5525 5527 5529 5531 5533 5535 5536 5538 5540 5541 5544 5546 5548 5550 5552 5553 5555 5557 5559 5561 5563 5565 5567 5569 5570 5572 5573 5574 5575 5576 5576 5577 5577 5577
5507 5507 5508 5509 5510 5511 5512 5513 5515 5517 5518 5520 5521 5523 5525 5526 5528 5529 5531 5532 5534 5536 5539 5541 5543 5545 5546 5548 5550 5553 5555 5556 5558 5560 5562 5564 5565 5566 5567 5568 5569 5570 5570 5571
5500 5500 5501 5502 5503 5504 5506 5507 5509 5510 5511 5513 5514 5516 5517 5519 5520 5521 5522 5524 5526 5528 5530 5532 5534 5536 5537 5539 5542 5544 5546 5548 5550 5552 5554 5556 5557 5558 5560 5561 5562 5562 5563 5563
5493 5494 5495 5496 5497 5498 5499 5501 5502 5503 5505 5506 5507 5509 5510 5511 5512 5513 5515 5516 5517 5519 5521 5523 5525 5527 5529 5531 5533 5536 5538 5541 5542 5544 5545 5547 5549 5550 5552 5553 5554 5555 5556 5556
5486 5487 5488 5489 5490 5491 5492 5494 5495 5496 5498 5499 5500 5501 5503 5504 5505 5506 5507 5508 5510 5511 5513 5514 5516 5518 5520 5523 5526 5528 5531 5533 5535 5536 5538 5539 5541 5542 5544 5545 5547 5548 5549 5549
5479 5480 5481 5482 5483 5484 5485 5487 5488 5489 5490 5492 5493 5494 5495 5496 5497 5498 5499 5500 5502 5503 5505 5507 5508 5510 5512 5515 5518 5521 5523 5525 5527 5529 5530 5532 5533 5535 5536 5538 5539 5540 5541 5542
5472 5473 5474 5475 5476 5477 5478 5479 5480 5481 5483 5484 5485 5487 5488 5489 5490 5491 5492 5493 5494 5496 5498 5499 5501 5503 5505 5507 5510 5513 5515 5517 5519 5521 5523 5524 5526 5527 5529 5530 5531 5533 5534 5534
5464 5465 5465 5466 5467 5469 5470 5471 5472 5473 5475 5476 5478 5479 5481 5482 5483 5484 5485 5486 5487 5489 5491 5492 5494 5496 5498 5500 5502 5505 5508 5510 5512 5514 5515 5517 5519 5520 5521 5523 5524 5525 5526 5527
5456 5457 5457 5458 5459 5460 5462 5463 5464 5465 5466 5468 5470 5471 5473 5474 5475 5477 5478 5479 5481 5482 5484 5485 5487 5489 5491 5493 5495 5497 5500 5502 5504 5506 5508 5510 5511 5513 5514 5515 5517 5518 5519 5520
5449 5449 5450 5450 5451 5452 5453 5455 5456 5457 5459 5460 5462 5463 5465 5466 5468 5469 5471 5472 5474 5475 5477 5478 5480 5482 5484 5486 5488 5490 5492 5494 5496 5498 5500 5502 5504 5505 5507 5508 5509 5510 5511 5512
5442 5442 5442 5443 5443 5444 5445 5446 5448 5449 5451 5452 5453 5455 5457 5458 5460 5462 5464 5466 5467 5468 5470 5472 5474 5476 5478 5479 5481 5483 5485 5487 5489 5491 5493 5495 5497 5498 5499 5500 5501 5502 5503 5504
5434 5434 5435 5435 5436 5436 5437 5438 5440 5442 5443 5445 5446 5447 5449 5451 5453 5455 5457 5459 5460 5462 5464 5466 5467 5469 5471 5473 5475 5476 5478 5480 5482 5484 5486 5488 5489 5491 5492 5493 5494 5495 5496 5496
5427 5427 5427 5428 5428 5429 5429 5430 5432 5434 5435 5437 5438 5440 5441 5443 5445 5448 5450 5452 5454 5455 5457 5459 5461 5463 5465 5467 5469 5470 5472 5474 5476 5478 5479 5481 5482 5484 5485 5486 5486 5487 5488 5488
5419 5419 5420 5420 5421 5421 5422 5423 5425 5426 5428 5429 5431 5432 5434 5436 5438 5440 5443 5445 5447 5449 5451 5453 5455 5457 5459 5461 5463 5464 5466 5468 5470 5472 5473 5475 5476 5477 5478 5478 5479 5480 5480 5481
5412 5412 5412 5413 5414 5414 5415 5416 5418 5419 5421 5422 5423 5425 5427 5429 5431 5433 5435 5438 5440 5442 5444 5446 5448 5450 5452 5454 5456 5458 5460 5462 5464 5466 5467 5468 5469 5470 5471 5472 5472 5473 5473 5473
5405 5405 5405 5405 5406 5407 5408 5409 5411 5412 5413 5415 5416 5418 5419 5421 5424 5426 5428 5430 5433 5435 5437 5440 5442 5444 5446 5448 5450 5452 5454 5456 5458 5459 5461 5462 5463 5464 5465 5465 5466 5466 5467 5467
5397 5397 5398 5398 5398 5399 5401 5402 5404 5405 5406 5408 5409 5411 5412 5414 5417 5419 5421 5423 5426 5428 5431 5433 5435 5438 5440 5442 5444 5446 5448 5450 5452 5453 5454 5456 5457 5458 5458 5459 5460 5460 5460 5461